Location: Bu�n Treun
(12.1333°N, 108.3167°E)
Time: 23:07:17
(UTC+00:00)

NATO 3D Rocket - Pass Details

Date: 13 July 2020
Orbit: 670 x 2296 km, 21.5° (Epoch: 14 August)

Event Time Altitude Azimuth Distance (km) Brightness Sun altitude
Exits shadow 21:17:01 - 290° (WNW) 4,002 6.8 -16.9°
Reaches altitude 10° 21:18:36 10° 291° (WNW) 3,456 6.5 -16.6°
Maximum altitude 21:26:58 79° 17° (NNE) 1,049 4.2 -14.7°
Drops below altitude 10° 21:32:44 10° 104° (ESE) 2,429 6.9 -13.5°
Sets 21:34:54 0° 105° (ESE) 3,237 7.6 -13.0°
